Location: Centerville
(32.8776°N, 96.6203°W)
Time: 02:20:52
(UTC+00:00)

Cosmos 2061 Rocket - Pass Details

Date: 17 June 2021
Orbit: 965 x 1013 km, 82.9° (Epoch: 27 July)

Event Time Altitude Azimuth Distance (km) Brightness Sun altitude
Rises 04:19:59 0° 356° (N) 3,751 8.0 -26.1°
Reaches altitude 10° 04:22:33 10° 359° (N) 2,795 7.1 -26.3°
Maximum altitude 04:28:59 72° 83° (E) 1,057 4.0 -27.0°
Enters shadow 04:29:37 67° 123° (ESE) 1,086 3.9 -27.1°
